[[{"header":{"parameterUnit":"m.s-1","parameterCategory":1,"la1":30.2991,"la2":30.254,"lo1":-89.0895,"lo2":-89.0444,"dy":0.0017,"dx":0.0017,"nx":28,"ny":28,"refTime":"2024-04-02T21:00:00:Z","depth":0,"parameterNumber":2,"parameterNumberName":"U-component_of_WINDS"},"data":[0,0,0,0,0,0,0,0,0,0,0,0,0,0,0,0,0,0,0,0,0,0,0,0,0,0,0,0,0,0,0,0,0,0,0,0,0,0,0,0,0,0,0,0,0,0,0,0,0,0,0,0,0,0,0,0,0,0,4.6213,4.6214,0,4.6332,4.6333,4.6334,4.6273,4.6269,4.6266,4.6263,4.6385,4.6391,4.6397,0,0,0,0,0,0,0,0,0,0,0,0,0,4.5934,4.5939,4.6213,4.6214,4.6216,4.6331,4.6333,4.6335,4.6273,4.6269,4.6266,4.6262,4.6383,4.639,4.6398,0,0,0,0,0,0,0,0,0,0,0,0,0,4.6054,4.5941,4.6213,4.6199,4.6199,4.6331,4.6333,4.6335,4.6274,4.6269,4.6265,4.626,4.638,4.6389,4.6399,4.6551,0,0,4.6427,4.6431,0,0,0,0,0,0,0,0,4.6047,4.6064,4.62,4.62,4.62,4.6282,4.6279,4.6407,4.6275,4.6246,4.6263,4.6258,4.6355,4.6366,4.6398,4.6556,4.6561,4.6428,4.6433,4.6437,4.644,0,0,0,0,0,0,0,4.6039,4.6059,4.626,4.6202,4.6202,4.6187,4.6199,4.6303,4.6325,4.6248,4.6244,4.6258,4.6354,4.639,4.6401,4.6563,4.6427,4.6436,4.6441,4.6445,4.6853,4.6858,0,0,0,0,0,0,4.6031,4.6052,4.6256,4.6263,4.6111,4.6196,4.621,4.6261,4.6324,4.6329,4.6262,4.6255,4.6376,4.639,4.6405,4.6588,4.6437,4.6446,4.6451,4.6848,4.6854,4.686,0,0,0,0,0,0,4.6026,4.605,4.6251,4.6157,4.6181,4.6206,4.6264,4.6266,4.6301,4.6335,4.6339,4.6295,4.6373,4.6392,4.6515,4.6591,4.645,4.6458,4.6842,4.685,4.6857,4.6954,0,0,0,0,0,0,4.6018,4.6048,4.6106,4.6159,4.6187,4.636,4.6269,4.6272,4.6317,4.6309,4.6366,4.6371,4.6371,4.6502,4.6524,4.6601,4.6466,4.6835,4.6845,4.6855,4.6944,4.6965,4.6982,0,0,0,0,0,4.6008,4.6129,4.6109,4.6134,4.6259,4.6364,4.638,4.6377,4.6324,4.6382,4.6404,4.6369,4.6579,4.6515,4.654,4.6621,4.683,4.6842,4.6854,4.6936,4.6961,4.6981,0,0,0,0,0,0,4.6084,4.6135,4.6114,4.6255,4.6306,4.6353,4.6427,4.6403,4.6469,4.6459,4.6452,4.6466,4.6594,4.662,4.6547,4.6772,4.6696,4.6714,4.675,4.6774,4.6792,4.6783,4.6473,0,0,0,0,0,4.6117,4.6198,4.6238,4.6359,4.6385,4.6402,4.6447,4.6441,4.6493,4.6514,4.6545,4.6597,4.6674,4.6725,4.6799,4.6948,4.696,4.7016,4.7035,4.705,4.7065,4.7147,4.7172,4.6899,4.6899,4.6899,0,0,4.6186,4.6224,4.6276,4.6375,4.6413,4.6497,4.642,4.6512,4.6575,4.6528,4.6646,4.6671,4.6729,4.6866,4.6928,4.6891,4.7143,4.7065,4.7077,4.7084,4.7162,4.7187,4.721,4.6907,4.6906,4.6904,0,0,4.6356,4.6392,4.6497,4.6537,4.6597,4.6607,4.6633,4.6684,4.6699,4.6818,4.6785,4.6859,4.6993,4.7036,4.7075,4.7262,4.7233,4.7286,4.7384,4.7464,4.7485,4.7504,4.7571,4.7596,4.7301,4.7302,4.7302,0,4.6434,4.6559,4.6554,4.6649,4.6694,4.6656,4.6762,4.6802,4.6882,4.6914,4.6872,4.704,4.7076,4.7223,4.7269,4.7302,4.7331,4.7279,4.7482,4.7501,4.7519,4.7583,4.7609,4.7308,4.7307,4.7306,4.7306,0,4.6653,4.6741,4.6818,4.6897,4.6951,4.7051,4.7062,4.7117,4.7106,4.7122,4.7244,4.7286,4.7367,4.7402,4.7392,4.7549,4.7524,4.7483,4.7407,4.7551,4.7612,4.7636,4.7316,4.7314,4.7312,4.7311,0,0,4.6873,4.6948,4.6977,4.7013,4.7076,4.7144,4.7243,4.7323,4.7371,4.7428,4.7511,4.7626,4.7588,4.7633,4.7628,4.7698,4.7844,4.7648,4.7649,4.7683,4.802,4.8051,4.8079,4.7825,4.783,4.7834,4.8015,0,4.7046,4.7219,4.7218,4.7379,4.746,4.7426,4.7512,4.7561,4.7578,4.765,4.7669,4.775,4.7694,4.7721,4.7789,4.7812,4.7912,4.7799,4.7903,4.7907,4.789,4.8111,4.8143,4.8313,4.8039,4.8043,4.8046,0,4.7272,4.7337,4.7506,4.7558,4.7592,4.767,4.7744,4.7813,4.7867,4.7875,4.7926,4.791,4.8011,4.7933,4.8073,4.7996,4.8039,4.8057,4.8063,4.8073,4.7985,4.8126,4.8366,4.8392,4.8082,4.808,4.8077,0,4.7416,4.7545,4.7663,4.7695,4.7759,4.7815,4.7844,4.7894,4.7943,4.8007,4.8039,4.8115,4.8156,4.8216,4.8221,4.8163,4.8362,4.8284,4.8372,4.8372,4.8415,4.8412,4.8665,4.8443,4.8442,4.8442,4.8441,0,4.761,4.7715,4.7729,4.7801,4.7918,4.7916,4.8031,4.8056,4.8101,4.8178,4.8153,4.8226,4.8228,4.8303,4.8308,4.8424,4.8443,4.8452,4.8452,4.8454,4.8453,4.8482,4.847,4.8449,4.8447,4.8446,4.8445,0,4.779,4.7804,4.793,4.7981,4.7996,4.808,4.8123,4.8193,4.8208,4.8306,4.8329,4.8353,4.844,4.8452,4.8553,4.8556,4.8695,4.8683,4.8677,4.8675,4.8762,4.8754,4.9043,4.9081,4.8834,4.8836,4.8838,0,4.7913,4.7993,4.8052,4.8102,4.8135,4.8215,4.8265,4.8266,4.8319,4.8388,4.845,4.8534,4.8602,4.8743,4.8769,4.8847,4.8837,4.8933,4.8848,4.8848,4.8838,4.8834,4.8842,4.8949,4.8951,4.8954,4.8955,0,4.813,4.8133,4.8206,4.8282,4.8342,4.8401,4.8457,4.85,4.8508,4.8569,4.8658,4.8711,4.8815,4.8899,4.8976,4.9006,4.8983,4.8982,4.9006,4.9009,4.9003,4.9008,4.8722,4.8975,4.8973,4.8972,4.8971,4.897,4.8285,4.8355,4.8408,4.849,4.8533,4.8586,4.8654,4.8678,4.8752,4.8837,4.8834,4.8932,4.8985,4.9087,4.9123,4.92,4.9168,4.9203,4.9212,4.9221,4.923,4.8991,4.9214,4.9213,4.9213,4.9212,4.9212,0,4.8501,4.8534,4.861,4.8689,4.8754,4.8727,4.8788,4.8844,4.893,4.8982,4.905,4.9152,4.9234,4.9268,4.9349,4.9404,4.9396,4.9425,4.9421,4.9429,4.9253,4.9224,4.9431,4.9431,4.9431,4.9431,4.9431,4.9431,4.8621,4.8738,4.8748,4.8886,4.8918,4.9013,4.9051,4.91,4.9142,4.9257,4.9326,4.9347,4.9393,4.9476,4.9551,4.9559,4.959,4.9624,4.9628,4.9463,4.9441,4.942,4.9392,4.9631,4.9631,4.9796,4.9798,4.9799]},{"header":{"parameterUnit":"m.s-1","parameterCategory":1,"la1":30.2991,"la2":30.254,"lo1":-89.0895,"lo2":-89.0444,"dy":0.0017,"dx":0.0017,"nx":28,"ny":28,"refTime":"2024-04-02T21:00:00:Z","depth":0,"parameterNumber":3,"parameterNumberName":"V-component_of_WINDS"},"data":[0,0,0,0,0,0,0,0,0,0,0,0,0,0,0,0,0,0,0,0,0,0,0,0,0,0,0,0,0,0,0,0,0,0,0,0,0,0,0,0,0,0,0,0,0,0,0,0,0,0,0,0,0,0,0,0,0,0,-4.1668,-4.167,0,-4.1858,-4.186,-4.1862,-4.1832,-4.1829,-4.1826,-4.1823,-4.202,-4.2028,-4.2036,0,0,0,0,0,0,0,0,0,0,0,0,0,-4.1284,-4.1291,-4.1668,-4.167,-4.1673,-4.1857,-4.186,-4.1863,-4.1833,-4.1829,-4.1825,-4.1821,-4.2017,-4.2027,-4.2037,0,0,0,0,0,0,0,0,0,0,0,0,0,-4.146,-4.1294,-4.1668,-4.168,-4.1683,-4.1857,-4.186,-4.1863,-4.1834,-4.1829,-4.1824,-4.182,-4.2014,-4.2026,-4.2038,-4.2212,0,0,-4.2076,-4.2082,0,0,0,0,0,0,0,0,-4.145,-4.1474,-4.1676,-4.168,-4.1683,-4.1816,-4.1797,-4.1981,-4.1835,-4.1777,-4.1823,-4.1817,-4.1956,-4.1973,-4.202,-4.2222,-4.223,-4.2077,-4.2085,-4.209,-4.2094,0,0,0,0,0,0,0,-4.1438,-4.1466,-4.1743,-4.1679,-4.1684,-4.1678,-4.1697,-4.1832,-4.1892,-4.1781,-4.178,-4.1802,-4.1957,-4.2008,-4.2024,-4.2233,-4.2077,-4.2088,-4.2096,-4.2101,-4.2589,-4.2595,0,0,0,0,0,0,-4.1422,-4.1456,-4.1737,-4.1749,-4.1552,-4.1688,-4.171,-4.1779,-4.189,-4.1902,-4.1806,-4.18,-4.1989,-4.201,-4.2031,-4.2243,-4.209,-4.2102,-4.2109,-4.2584,-4.2591,-4.2597,0,0,0,0,0,0,-4.1414,-4.1447,-4.1729,-4.1602,-4.1637,-4.17,-4.1777,-4.1785,-4.1835,-4.1909,-4.192,-4.1847,-4.1986,-4.2013,-4.2168,-4.225,-4.2107,-4.2119,-4.2577,-4.2586,-4.2594,-4.2669,0,0,0,0,0,0,-4.1403,-4.1444,-4.151,-4.1604,-4.1644,-4.1862,-4.1782,-4.1792,-4.1856,-4.185,-4.1949,-4.1961,-4.1984,-4.2149,-4.218,-4.2264,-4.2128,-4.257,-4.2581,-4.2591,-4.2659,-4.2679,-4.2695,0,0,0,0,0,-4.1389,-4.1524,-4.1514,-4.1548,-4.1728,-4.1867,-4.1891,-4.1913,-4.1863,-4.1931,-4.1978,-4.1958,-4.2236,-4.2165,-4.22,-4.2289,-4.2565,-4.2578,-4.259,-4.2651,-4.2675,-4.2695,0,0,0,0,0,0,-4.1439,-4.1536,-4.1526,-4.1695,-4.1773,-4.1862,-4.1947,-4.1937,-4.2032,-4.2022,-4.2048,-4.207,-4.2227,-4.2273,-4.2193,-4.2464,-4.2394,-4.2414,-4.2428,-4.2451,-4.2469,-4.2455,-4.2139,0,0,0,0,0,-4.147,-4.1574,-4.1653,-4.1795,-4.1835,-4.1885,-4.1946,-4.1957,-4.2039,-4.2072,-4.2131,-4.2212,-4.2318,-4.2387,-4.2488,-4.2666,-4.2688,-4.2744,-4.2762,-4.2776,-4.2794,-4.2893,-4.2919,-4.2638,-4.2638,-4.2637,0,0,-4.1535,-4.16,-4.1665,-4.1807,-4.1868,-4.1977,-4.1912,-4.2029,-4.2111,-4.209,-4.224,-4.2286,-4.2378,-4.2545,-4.2622,-4.2589,-4.2876,-4.2792,-4.2803,-4.2813,-4.2908,-4.2935,-4.2959,-4.2646,-4.2645,-4.2643,0,0,-4.1708,-4.1768,-4.1893,-4.1956,-4.205,-4.2082,-4.2112,-4.2203,-4.2233,-4.2383,-4.2371,-4.2468,-4.2649,-4.2716,-4.2774,-4.2974,-4.2959,-4.3006,-4.31,-4.3196,-4.3219,-4.3239,-4.3312,-4.3337,-4.3023,-4.3023,-4.3023,0,-4.1777,-4.1938,-4.1959,-4.2078,-4.2141,-4.2127,-4.2255,-4.2315,-4.2438,-4.2483,-4.2444,-4.2672,-4.2733,-4.2916,-4.2965,-4.3012,-4.3048,-4.2995,-4.3214,-4.3234,-4.3253,-4.3323,-4.335,-4.3028,-4.3027,-4.3027,-4.3026,0,-4.2019,-4.2132,-4.2222,-4.234,-4.2414,-4.2536,-4.2577,-4.2649,-4.2654,-4.2691,-4.2845,-4.2918,-4.3035,-4.3079,-4.3085,-4.3264,-4.3241,-4.3207,-4.3137,-4.3284,-4.335,-4.3377,-4.3035,-4.3033,-4.3032,-4.3031,0,0,-4.223,-4.2358,-4.2391,-4.2445,-4.2548,-4.2636,-4.2759,-4.2872,-4.2934,-4.302,-4.3125,-4.3278,-4.3249,-4.3314,-4.3328,-4.3412,-4.3568,-4.3369,-4.3371,-4.3405,-4.3772,-4.3798,-4.3828,-4.3559,-4.3564,-4.3568,-4.3765,0,-4.2414,-4.263,-4.2652,-4.2846,-4.2951,-4.294,-4.3047,-4.3123,-4.3161,-4.3257,-4.3299,-4.3408,-4.336,-4.34,-4.3483,-4.3531,-4.3642,-4.3517,-4.3658,-4.3663,-4.3637,-4.3863,-4.389,-4.4072,-4.3791,-4.3795,-4.3798,0,-4.2658,-4.275,-4.2954,-4.3043,-4.3088,-4.3184,-4.3291,-4.3382,-4.3468,-4.349,-4.3564,-4.3566,-4.3695,-4.3619,-4.3797,-4.3712,-4.3771,-4.3804,-4.3811,-4.3826,-4.3741,-4.3885,-4.413,-4.4158,-4.3839,-4.3836,-4.3833,0,-4.2793,-4.2968,-4.3113,-4.3159,-4.3267,-4.3335,-4.3383,-4.3464,-4.3532,-4.3625,-4.3669,-4.3776,-4.3835,-4.3919,-4.3951,-4.3893,-4.4129,-4.4055,-4.4152,-4.4152,-4.4203,-4.42,-4.4463,-4.4239,-4.4239,-4.4238,-4.4238,0,-4.2997,-4.3123,-4.3175,-4.3265,-4.3406,-4.3431,-4.357,-4.3615,-4.3688,-4.3787,-4.3784,-4.3877,-4.3913,-4.4013,-4.4039,-4.4184,-4.421,-4.4233,-4.4239,-4.4234,-4.4232,-4.4274,-4.4263,-4.4245,-4.4244,-4.4242,-4.4241,0,-4.3173,-4.3212,-4.337,-4.3459,-4.3484,-4.3585,-4.3661,-4.3749,-4.3785,-4.3911,-4.3942,-4.4001,-4.4118,-4.4158,-4.43,-4.4318,-4.4487,-4.4481,-4.4458,-4.446,-4.4555,-4.4546,-4.4856,-4.4899,-4.4645,-4.4647,-4.4649,0,-4.3301,-4.3397,-4.3497,-4.3562,-4.3613,-4.3719,-4.3787,-4.3816,-4.3888,-4.3994,-4.4069,-4.4185,-4.428,-4.4468,-4.4524,-4.4634,-4.4632,-4.4733,-4.4648,-4.4641,-4.4635,-4.463,-4.4641,-4.4749,-4.4751,-4.4754,-4.4755,0,-4.3525,-4.354,-4.3638,-4.3744,-4.3826,-4.3911,-4.3993,-4.4047,-4.4088,-4.4169,-4.4289,-4.4362,-4.4508,-4.4624,-4.4736,-4.4787,-4.478,-4.4781,-4.481,-4.4807,-4.4791,-4.4803,-4.4503,-4.4774,-4.4772,-4.4771,-4.477,-4.4769,-4.3683,-4.3768,-4.3852,-4.3962,-4.4026,-4.4103,-4.419,-4.4238,-4.4337,-4.4458,-4.4469,-4.4598,-4.4684,-4.4833,-4.489,-4.4992,-4.4964,-4.5005,-4.5016,-4.5026,-4.5035,-4.4773,-4.5013,-4.5012,-4.5012,-4.5011,-4.5011,0,-4.3908,-4.3961,-4.4062,-4.4177,-4.4264,-4.4247,-4.4337,-4.4412,-4.4526,-4.4605,-4.4698,-4.4837,-4.495,-4.5015,-4.5129,-4.5199,-4.5198,-4.5228,-4.5224,-4.5236,-4.5052,-4.5017,-4.5226,-4.5226,-4.5226,-4.5226,-4.5226,-4.5226,-4.4036,-4.4181,-4.4206,-4.4383,-4.4436,-4.4562,-4.4615,-4.4687,-4.4751,-4.4905,-4.4999,-4.504,-4.5115,-4.5234,-4.5337,-4.5354,-4.5397,-4.543,-4.5443,-4.5271,-4.5249,-4.5228,-4.5195,-4.5438,-4.5438,-4.5619,-4.5621,-4.5622]}]]